Tracking 35237 objects as of 6-Sep-2026
HD Live streaming from Space Station
objects crossing your sky now

GALAXY 23 (TELSTAR 13)

Track GALAXY 23 (TELSTAR 13) now!
GALAXY 23 (TELSTAR 13) is classified as:


NORAD ID: 27854
Int'l Code: 2003-034A
Launch date: August 8, 2003
Source: United States (US)
Launch site: SEA LAUNCH (SEAL)

24 C-band, 2 Ka-band, 32 Ku-band; additional C-band payload owned and operated by Loral Skynet.
Your satellite tracking list
Your tracking list is empty




NASA's NSSDC Master Catalog

Two Line Element Set (TLE):
1 27854U 03034A   26249.22956062 -.00000249  00000-0  00000-0 0  9997
2 27854   3.4099  78.5403 0003296 111.8513 208.1148  0.98956700 84493
Source of the keplerian elements: AFSPC